METEOSAT-11 (MSG-4)

Last updated on June 19, 2019, 3:33 a.m. UTC

1 40732U 15034A   19169.31212119 -.00000006  00000-0  00000+0 0  9991
2 40732   1.0464 258.6762 0002070 218.2524 262.1784  1.00263715 14406
UTC
Height (km)
Latitude
Longitude
Inclination
Orbital Period
UTC large
Height (km)
Speed (km/s)
/
Latitude / Longitude
Inclination (degrees)
Orbital Period (minutes)
Azimuth
Elevation
Range (km)
Doppler Factor
iOS Compass Heading
iOS Angle

Next 30 passes for location: Hong Kong

Rise time Rise Azimuth (degrees) Set time Set Azimuth (degrees) Duration Max altitude (degrees)

No matching passes for this satellites